ARIANE 2 DEB, 33567

Orbit data source: Space-Track

ARIANE 2 DEB, 33567 is space debris in HEO originally from a launch on Fri, 27 Jan 1989 UTC launched from the French Guiana (FRGUI). Debris objects in space refer to the collection of defunct objects orbiting the Earth. Examples of debris include non-operational satellites, rocket bodies, and fragments generated from explosions, collisions, or faulty payload assembly.

Loading next visibility...
Identifier
33567, 1989-006BK
Orbit
HEO
Country
Flag of FRFR
Related business
Manufacturer
EADS/LV
Mission
Spacecraft
Bus & Motor
Unknown
Mass
Unknown
Launch date (UTC)
1989-01-27 (37 years ago)
Launch vehicle
Unknown
Launch site
French Guiana (FRGUI)
Object type
Payload
Rocket body
Debris
Shape & HBR
Unknown shape, 0.2 m
Radar Cross Section
Medium (>0.1 m² and <1 m²)

Expand to show TLE details & history
Last TLE update: 1 day ago

TLE from 1 day ago
0 ARIANE 2 DEB
1 33567U 89006BK  26104.18454921 -.00000243  00000-0 -88649-2 0  9992
2 33567   9.2185 306.8651 7081222 332.6137 327.9191  2.26344152177755
Epoch: 2026-04-14T04:25Z
TLE epoch observation values (Epoch: 2026-04-14T04:25:45.051Z)
Latitude
-5.11534°
Longitude
-108.57057°
Altitude
12,232.854 km
Speed
5.154 km/s
True Right ascension
10h 40m 55s
True Declination
-5° 06' 13"
Sunlit
Object was in daylight at epoch
Visualization orbit readout
Latitude
Unknown
Longitude
Unknown
Altitude
Unknown
Speed
Unknown
Apparent Right ascension
Unknown
Apparent Declination
Unknown
Sunlit
N/A
Visualization observer readout
Local Sidereal Time
20:31:03
Azimuth
Unknown
Elevation
Unknown
Doppler factor
Unknown
Orbital elements
Apogee altitude
35,484.689 km
Perigee altitude
775.233 km
Semi-major axis
24,508.098 km
Eccentricity
0.70812
Inclination
9.2185°
RAAN
306.8651°
Arg. of periapsis
332.6137°
True anomaly
240.85866°
Mean anomaly
327.9191°
Eccentric anomaly
289.72807°
Mean motion
0.56569 °/min
Orbital period
636.39 mins
BSTAR
-0.0088649
Loading maneuver chart data...
Computing Atmospheric mass density...
Loading historical data...
Loading historical data...
Loading historical data...
Loading historical data...
Loading historical data...
Loading historical data...
Loading historical data...

Documentation

Showing up to 5 results
|